• In Netherlands
  • List of Countries
  • For 7 days
  • Water Temperature
  • Satellite Maps
  • Weather Map
  • Weather Widgets
  • user-avatar
    Login

    Hourly Weather Pabna

    Today, 19 January, Thursday

    Time Temperature Precipitation Wind Pressure Humidity
    00:00 +18°C° 0 mm 2 mps 762 mmHg 44%
    01:00 +18°C° 0 mm 2 mps 762 mmHg 44%
    02:00 +17°C° 0 mm 3 mps 762 mmHg 44%
    03:00 +17°C° 0 mm 3 mps 761 mmHg 44%
    04:00 +17°C° 0 mm 3 mps 761 mmHg 44%
    05:00 +16°C° 0 mm 3 mps 761 mmHg 45%
    06:00 +16°C° 0 mm 3 mps 761 mmHg 50%
    07:00 +17°C° 0 mm 3 mps 762 mmHg 47%
    08:00 +19°C° 0 mm 4 mps 763 mmHg 44%
    09:00 +20°C° 0 mm 4 mps 763 mmHg 40%
    10:00 +23°C° 0 mm 4 mps 763 mmHg 36%
    11:00 +26°C° 0 mm 4 mps 762 mmHg 32%
    12:00 +29°C° 0 mm 4 mps 762 mmHg 27%
    13:00 +29°C° 0 mm 4 mps 761 mmHg 25%
    14:00 +30°C° 0 mm 4 mps 761 mmHg 23%
    15:00 +30°C° 0 mm 4 mps 760 mmHg 21%
    16:00 +28°C° 0 mm 3 mps 760 mmHg 25%
    17:00 +25°C° 0 mm 3 mps 760 mmHg 28%
    18:00 +23°C° 0 mm 2 mps 760 mmHg 31%
    19:00 +21°C° 0 mm 2 mps 760 mmHg 31%
    20:00 +21°C° 0 mm 3 mps 760 mmHg 31%
    21:00 +20°C° 0 mm 3 mps 761 mmHg 32%
    22:00 +20°C° 0 mm 3 mps 761 mmHg 33%
    23:00 +19°C° 0 mm 3 mps 761 mmHg 34%

    Tomorrow, 20 January, Friday

    Time Temperature Precipitation Wind Pressure Humidity
    00:00 +19°C° 0 mm 3 mps 761 mmHg 35%
    01:00 +18°C° 0 mm 3 mps 761 mmHg 37%
    02:00 +18°C° 0 mm 3 mps 761 mmHg 38%
    03:00 +17°C° 0 mm 3 mps 760 mmHg 40%
    04:00 +17°C° 0 mm 3 mps 760 mmHg 43%
    05:00 +16°C° 0 mm 3 mps 760 mmHg 45%
    06:00 +16°C° 0 mm 3 mps 760 mmHg 48%
    07:00 +17°C° 0 mm 3 mps 761 mmHg 45%
    08:00 +19°C° 0 mm 3 mps 761 mmHg 43%
    09:00 +21°C° 0 mm 3 mps 762 mmHg 40%
    10:00 +24°C° 0 mm 3 mps 762 mmHg 35%
    11:00 +26°C° 0 mm 3 mps 762 mmHg 29%
    12:00 +28°C° 0 mm 3 mps 761 mmHg 24%
    13:00 +29°C° 0 mm 3 mps 760 mmHg 22%
    14:00 +30°C° 0 mm 4 mps 760 mmHg 21%
    15:00 +30°C° 0 mm 4 mps 759 mmHg 19%
    16:00 +28°C° 0 mm 4 mps 759 mmHg 23%
    17:00 +26°C° 0 mm 3 mps 759 mmHg 26%
    18:00 +22°C° 0 mm 3 mps 759 mmHg 30%
    19:00 +22°C° 0 mm 3 mps 759 mmHg 31%
    20:00 +21°C° 0 mm 3 mps 760 mmHg 32%
    21:00 +20°C° 0 mm 3 mps 760 mmHg 34%
    22:00 +19°C° 0 mm 3 mps 760 mmHg 35%
    23:00 +19°C° 0 mm 3 mps 760 mmHg 36%

    Day after tomorrow, 21 January, Saturday

    Time Temperature Precipitation Wind Pressure Humidity
    00:00 +18°C° 0 mm 3 mps 761 mmHg 38%
    01:00 +18°C° 0 mm 3 mps 760 mmHg 40%
    02:00 +17°C° 0 mm 3 mps 760 mmHg 41%
    03:00 +17°C° 0 mm 3 mps 760 mmHg 43%
    04:00 +16°C° 0 mm 3 mps 760 mmHg 45%
    05:00 +16°C° 0 mm 3 mps 760 mmHg 46%
    06:00 +14°C° 0 mm 3 mps 760 mmHg 48%
    07:00 +17°C° 0 mm 3 mps 761 mmHg 45%
    08:00 +18°C° 0 mm 3 mps 762 mmHg 41%
    09:00 +20°C° 0 mm 3 mps 763 mmHg 38%
    10:00 +22°C° 0 mm 3 mps 762 mmHg 33%
    11:00 +26°C° 0 mm 3 mps 762 mmHg 28%
    12:00 +28°C° 0 mm 3 mps 762 mmHg 23%
    13:00 +29°C° 0 mm 3 mps 761 mmHg 21%
    14:00 +29°C° 0 mm 3 mps 760 mmHg 19%
    15:00 +30°C° 0 mm 3 mps 759 mmHg 18%
    16:00 +28°C° 0 mm 3 mps 760 mmHg 21%
    17:00 +25°C° 0 mm 3 mps 760 mmHg 24%
    18:00 +22°C° 0 mm 3 mps 760 mmHg 27%
    19:00 +21°C° 0 mm 3 mps 760 mmHg 28%
    20:00 +21°C° 0 mm 3 mps 761 mmHg 29%
    21:00 +20°C° 0 mm 3 mps 761 mmHg 29%
    22:00 +19°C° 0 mm 3 mps 762 mmHg 32%
    23:00 +18°C° 0 mm 3 mps 762 mmHg 34%

    22 January, Sunday

    Time Temperature Precipitation Wind Pressure Humidity
    00:00 +18°C° 0 mm 3 mps 762 mmHg 36%
    01:00 +17°C° 0 mm 3 mps 762 mmHg 38%
    02:00 +17°C° 0 mm 3 mps 761 mmHg 39%
    03:00 +16°C° 0 mm 3 mps 761 mmHg 41%
    04:00 +16°C° 0 mm 3 mps 761 mmHg 42%
    05:00 +16°C° 0 mm 3 mps 761 mmHg 43%
    06:00 +14°C° 0 mm 3 mps 762 mmHg 44%
    07:00 +17°C° 0 mm 3 mps 762 mmHg 42%
    08:00 +19°C° 0 mm 3 mps 763 mmHg 39%
    09:00 +20°C° 0 mm 3 mps 763 mmHg 37%
    10:00 +24°C° 0 mm 3 mps 763 mmHg 33%
    11:00 +26°C° 0 mm 3 mps 763 mmHg 29%
    12:00 +28°C° 0 mm 3 mps 762 mmHg 25%
    13:00 +29°C° 0 mm 3 mps 761 mmHg 23%
    14:00 +30°C° 0 mm 3 mps 760 mmHg 21%
    15:00 +30°C° 0 mm 3 mps 759 mmHg 20%
    16:00 +28°C° 0 mm 2 mps 759 mmHg 23%
    17:00 +25°C° 0 mm 2 mps 759 mmHg 27%
    18:00 +23°C° 0 mm 2 mps 759 mmHg 31%
    19:00 +21°C° 0 mm 2 mps 760 mmHg 31%
    20:00 +21°C° 0 mm 3 mps 760 mmHg 32%
    21:00 +20°C° 0 mm 3 mps 761 mmHg 32%
    22:00 +19°C° 0 mm 3 mps 761 mmHg 34%
    23:00 +19°C° 0 mm 3 mps 761 mmHg 36%

    23 January, Monday

    Time Temperature Precipitation Wind Pressure Humidity
    00:00 +18°C° 0 mm 3 mps 761 mmHg 38%
    01:00 +18°C° 0 mm 3 mps 761 mmHg 39%
    02:00 +17°C° 0 mm 3 mps 760 mmHg 41%
    03:00 +17°C° 0 mm 3 mps 760 mmHg 43%
    04:00 +16°C° 0 mm 3 mps 760 mmHg 44%
    05:00 +16°C° 0 mm 3 mps 761 mmHg 45%
    06:00 +16°C° 0 mm 3 mps 761 mmHg 47%
    07:00 +17°C° 0 mm 3 mps 761 mmHg 44%
    08:00 +19°C° 0 mm 3 mps 762 mmHg 41%
    09:00 +21°C° 0 mm 3 mps 762 mmHg 38%
    10:00 +24°C° 0 mm 3 mps 762 mmHg 33%
    11:00 +26°C° 0 mm 3 mps 762 mmHg 29%
    12:00 +28°C° 0 mm 3 mps 761 mmHg 25%
    13:00 +29°C° 0 mm 3 mps 760 mmHg 23%
    14:00 +30°C° 0 mm 2 mps 759 mmHg 22%
    15:00 +30°C° 0 mm 2 mps 759 mmHg 20%
    16:00 +28°C° 0 mm 2 mps 759 mmHg 23%
    17:00 +25°C° 0 mm 2 mps 759 mmHg 27%
    18:00 +23°C° 0 mm 2 mps 759 mmHg 31%
    19:00 +21°C° 0 mm 2 mps 759 mmHg 31%
    20:00 +21°C° 0 mm 2 mps 760 mmHg 32%
    21:00 +20°C° 0 mm 3 mps 760 mmHg 32%
    22:00 +20°C° 0 mm 3 mps 760 mmHg 34%
    23:00 +19°C° 0 mm 3 mps 760 mmHg 35%

    24 January, Tuesday

    Time Temperature Precipitation Wind Pressure Humidity
    00:00 +19°C° 0 mm 3 mps 760 mmHg 36%
    01:00 +18°C° 0 mm 3 mps 760 mmHg 38%
    02:00 +18°C° 0 mm 3 mps 760 mmHg 40%
    03:00 +17°C° 0 mm 3 mps 759 mmHg 41%
    04:00 +17°C° 0 mm 2 mps 760 mmHg 43%
    05:00 +16°C° 0 mm 2 mps 760 mmHg 44%
    06:00 +16°C° 0 mm 2 mps 760 mmHg 45%
    07:00 +18°C° 0 mm 2 mps 761 mmHg 42%
    08:00 +20°C° 0 mm 2 mps 761 mmHg 39%
    09:00 +23°C° 0 mm 2 mps 762 mmHg 36%
    10:00 +25°C° 0 mm 2 mps 762 mmHg 32%
    11:00 +27°C° 0 mm 2 mps 761 mmHg 27%
    12:00 +29°C° 0 mm 2 mps 761 mmHg 23%
    13:00 +30°C° 0 mm 2 mps 760 mmHg 22%
    14:00 +30°C° 0 mm 2 mps 759 mmHg 20%
    15:00 +31°C° 0 mm 1 mps 759 mmHg 18%
    16:00 +28°C° 0 mm 1 mps 759 mmHg 22%
    17:00 +26°C° 0 mm 1 mps 759 mmHg 26%
    18:00 +23°C° 0 mm 1 mps 759 mmHg 30%
    19:00 +22°C° 0 mm 1 mps 759 mmHg 30%
    20:00 +22°C° 0 mm 1 mps 760 mmHg 31%
    21:00 +21°C° 0 mm 1 mps 760 mmHg 32%
    22:00 +20°C° 0 mm 2 mps 760 mmHg 32%
    23:00 +20°C° 0 mm 2 mps 760 mmHg 32%
    Show more